Taba International, Egypt

12:47 AM EET on April 23, 2018 (GMT +0200)
Taba International

Weather History for HETB - October, 2012

Change the Weather History Date:

Monday, October 29, 2012

  Actual Average Record
Temperature  
Mean Temperature 70 °F -  
Max Temperature 86 °F - - ()
Min Temperature 53 °F - - ()
Cooling Degree Days 4    
Growing Degree Days 20 (Base 50)    
Moisture  
Dew Point 39 °F    
Average Humidity 38    
Maximum Humidity 67    
Minimum Humidity 11    
Precipitation  
Precipitation 0.00 in - - ()
Sea Level Pressure  
Sea Level Pressure 30.03 in    
Wind  
Wind Speed 0 mph ()    
Max Wind Speed 4 mph    
Max Gust Speed -    
T = Trace of Precipitation, MM = Missing Value Source: Averaged Metar Reports

Daily Weather History Graph

Daily Weather History Graph

Search for Another Location

Airport or City:

Astronomy

Oct. 29, 2012 Rise Set
Actual Time 5:52 AM EET 4:56 PM EET
Civil Twilight 5:27 AM EET 5:21 PM EET
Nautical Twilight 4:59 AM EET 5:49 PM EET
Astronomical Twilight 4:31 AM EET 6:17 PM EET
Moon 4:38 PM EET (10/29) 5:22 AM EET (10/29)
Length of Visible Light 11h 53m
Length of Day
11h 04m
Full, 100% of the Moon is Illuminated
Oct 29
Full
Oct 29
Full
Nov 7
Last Quarter
Nov 14
New
Nov 20
First Quarter

Hourly Weather History & Observations

Time (EET) Temp. Dew Point Humidity Pressure Visibility Wind Dir Wind Speed Gust Speed Precip Events Conditions
12:00 AM 60.8 °F 41.0 °F 48% 30.09 in - Calm Calm - N/A   Clear
1:00 AM 59.0 °F 42.8 °F 55% 30.09 in - Calm Calm - N/A   Clear
2:00 AM 59.0 °F 44.6 °F 59% 30.06 in - Calm Calm - N/A   Clear
3:00 AM 59.0 °F 44.6 °F 59% 30.06 in - Calm Calm - N/A   Clear
4:00 AM 57.2 °F 44.6 °F 63% 30.06 in - Calm Calm - N/A   Clear
5:00 AM 57.2 °F 44.6 °F 63% 30.06 in - Calm Calm - N/A   Clear
6:00 AM 53.6 °F 42.8 °F 67% 30.06 in - Calm Calm - N/A   Clear
7:00 AM 59.0 °F 46.4 °F 63% 30.06 in - Calm Calm - N/A   Clear
8:00 AM 64.4 °F 48.2 °F 56% 30.06 in - Calm Calm - N/A   Clear
9:00 AM 69.8 °F 44.6 °F 40% 30.06 in - Calm Calm - N/A   Clear
10:00 AM 77.0 °F 39.2 °F 26% 30.06 in - Calm Calm - N/A   Clear
11:00 AM 80.6 °F 35.6 °F 20% 30.04 in - Calm Calm - N/A   Clear
12:00 PM 82.4 °F 33.8 °F 17% 30.01 in - East 3.5 mph - N/A   Clear
1:00 PM 82.4 °F 33.8 °F 17% 30.01 in - East 3.5 mph - N/A   Clear
2:00 PM 84.2 °F 32.0 °F 15% 29.98 in - Calm Calm - N/A   Clear
3:00 PM 86.0 °F 24.8 °F 11% 29.98 in - Calm Calm - N/A   Clear
4:00 PM 86.0 °F 26.6 °F 12% 29.98 in - Calm Calm - N/A   Clear
5:00 PM 82.4 °F 33.8 °F 17% 29.98 in - Calm Calm - N/A   Clear
6:00 PM 77.0 °F 39.2 °F 26% 29.98 in - Calm Calm - N/A   Clear
7:00 PM 75.2 °F 39.2 °F 27% 29.98 in - Calm Calm - N/A   Clear
8:00 PM 68.0 °F 39.2 °F 35% 30.01 in - Calm Calm - N/A   Clear
9:00 PM 68.0 °F 39.2 °F 35% 30.01 in - Calm Calm - N/A   Clear
10:00 PM 66.2 °F 39.2 °F 37% 30.01 in - Calm Calm - N/A   Clear
11:00 PM 66.2 °F 39.2 °F 37% 30.01 in - Calm Calm - N/A   Clear